FW0014 Weather Reports


time (UTC)temp
C
wind
direction
speed
KPH
gust
KPH
rain 1hr
cm
rain 24hr
cm
rain mn
cm
humidity
%
barometer
mb
20260504110547 15 170 9.7 16.1 0.00 0.00 0.00 82 1013.8
20260504110322 15 191 8.0 16.1 0.00 0.00 0.00 82 1015.0
20260504100542 15 186 4.8 12.9 0.00 0.00 0.00 80 1014.5
20260504100332 15 201 6.4 12.9 0.00 0.00 0.00 80 1015.8
20260504081818 16 183 8.0 14.5 0.00 0.00 0.00 74 1016.1
20260504081600 16 174 6.4 16.1 0.00 0.00 0.00 74 1014.8
20260504081500 16 174 8.0 16.1 0.00 0.00 0.00 74 1014.8
20260504081314 16 190 8.0 16.1 0.00 0.00 0.00 74 1016.1
20260504081055 16 195 8.0 16.1 0.00 0.00 0.00 74 1014.8
20260504080850 16 210 9.7 16.1 0.00 0.00 0.00 74 1016.0
20260504080524 16 195 6.4 17.7 0.00 0.00 0.00 74 1014.8
20260504080325 16 195 9.7 17.7 0.00 0.00 0.00 74 1016.1
20260504070331 16 173 12.9 25.7 0.00 0.00 0.00 70 1016.8
20260504050526 16 191 6.4 9.7 0.00 0.00 0.00 66 1017.1
20260504050326 16 191 6.4 9.7 0.00 0.00 0.00 66 1018.2
20260504050123 16 191 4.8 8.0 0.00 0.00 0.00 66 1017.1
20260504045832 16 191 4.8 8.0 0.00 0.00 0.00 66 1018.3
20260504045540 16 191 3.2 8.0 0.00 0.00 0.00 66 1017.1
20260504045328 16 191 4.8 8.0 0.00 0.00 0.00 66 1018.3
20260504045034 16 191 4.8 8.0 0.00 0.00 0.00 66 1017.1
20260504044825 16 191 6.4 8.0 0.00 0.00 0.00 66 1018.2
20260504044532 16 191 4.8 8.0 0.00 0.00 0.00 66 1017.1
20260504044321 16 191 4.8 6.4 0.00 0.00 0.00 66 1018.3
20260504044016 16 191 3.2 6.4 0.00 0.00 0.00 66 1017.2
20260504043818 16 191 4.8 6.4 0.00 0.00 0.00 66 1018.4
20260504043602 16 191 3.2 6.4 0.00 0.00 0.00 66 1017.2
20260504043315 16 191 4.8 6.4 0.00 0.00 0.00 66 1018.3
20260504043103 16 191 3.2 6.4 0.00 0.00 0.00 66 1017.1
20260504042830 16 191 3.2 6.4 0.00 0.00 0.00 66 1018.4
20260504042551 16 191 3.2 6.4 0.00 0.00 0.00 66 1017.2
20260504042327 16 191 3.2 6.4 0.00 0.00 0.00 66 1018.5
20260504042044 16 191 3.2 6.4 0.00 0.00 0.00 66 1017.2
20260504041824 16 191 3.2 6.4 0.00 0.00 0.00 66 1018.5
20260504041537 16 191 3.2 6.4 0.00 0.00 0.00 65 1017.4
20260504041320 16 191 3.2 6.4 0.00 0.00 0.00 65 1018.6
20260504041033 16 191 3.2 6.4 0.00 0.00 0.00 65 1017.4
20260504040851 16 191 3.2 6.4 0.00 0.00 0.00 65 1018.6
20260504040558 16 191 3.2 6.4 0.00 0.00 0.00 65 1017.5
20260504040326 16 191 4.8 8.0 0.00 0.00 0.00 66 1018.7
20260504040051 16 191 3.2 8.0 0.00 0.00 0.00 66 1017.6
20260504035822 16 191 4.8 8.0 0.00 0.00 0.00 66 1018.8
20260504035543 16 191 4.8 8.0 0.00 0.00 0.00 66 1017.7
20260504035318 16 191 3.2 6.4 0.00 0.00 0.00 66 1018.8
20260504035037 16 191 3.2 6.4 0.00 0.00 0.00 65 1017.6
20260504034836 16 191 3.2 8.0 0.00 0.00 0.00 65 1018.7
20260504034616 16 191 3.2 8.0 0.00 0.00 0.00 65 1017.4
20260504034332 16 191 4.8 8.0 0.00 0.00 0.00 65 1018.6
20260504034054 16 191 3.2 8.0 0.00 0.00 0.00 65 1017.4
20260504033827 16 191 3.2 6.4 0.00 0.00 0.00 65 1018.5
20260504033546 16 191 3.2 6.4 0.00 0.00 0.00 65 1017.2
20260504033323 16 191 4.8 8.0 0.00 0.00 0.00 65 1018.4
20260504033050 16 191 4.8 8.0 0.00 0.00 0.00 65 1017.3
20260504032838 17 191 4.8 8.0 0.00 0.00 0.00 65 1018.5
20260504032604 16 191 4.8 9.7 0.00 0.00 0.00 65 1017.3
20260504032333 17 191 6.4 9.7 0.00 0.00 0.00 64 1018.5
20260504032035 16 178 4.8 9.7 0.00 0.00 0.00 64 1017.4
20260504031829 17 189 6.4 9.7 0.00 0.00 0.00 64 1018.5
20260504031527 16 185 4.8 11.3 0.00 0.00 0.00 64 1017.1
20260504031324 17 187 6.4 11.3 0.00 0.00 0.00 64 1018.3
20260504031012 17 158 6.4 11.3 0.00 0.00 0.00 64 1017.2
20260504030841 17 166 8.0 11.3 0.00 0.00 0.00 64 1018.3
20260504030542 17 189 6.4 11.3 0.00 0.00 0.00 64 1017.2
20260504030316 17 180 6.4 11.3 0.00 0.00 0.00 64 1018.3
20260504030034 17 184 6.4 11.3 0.00 0.00 0.00 64 1017.2
20260504025833 17 180 8.0 11.3 0.00 0.00 0.00 64 1018.5
20260504025528 17 200 4.8 9.7 0.00 0.00 0.00 64 1017.3
20260504025329 17 181 6.4 9.7 0.00 0.00 0.00 64 1018.5
20260504025025 17 181 3.2 8.0 0.00 0.00 0.00 64 1017.3
20260504024825 17 181 4.8 8.0 0.00 0.00 0.00 63 1018.4
20260504024526 17 181 3.2 8.0 0.00 0.00 0.00 63 1017.3
20260504024321 17 181 4.8 6.4 0.00 0.00 0.00 63 1018.5
20260504024005 17 181 3.2 6.4 0.00 0.00 0.00 62 1017.4
20260504023820 17 181 4.8 6.4 0.00 0.00 0.00 62 1018.5
20260504023556 17 181 3.2 6.4 0.00 0.00 0.00 62 1017.4
20260504023316 18 181 4.8 6.4 0.00 0.00 0.00 61 1018.5
20260504023050 17 181 3.2 6.4 0.00 0.00 0.00 61 1017.3
20260504022832 18 181 4.8 6.4 0.00 0.00 0.00 61 1018.5
20260504022544 17 181 3.2 6.4 0.00 0.00 0.00 61 1017.3
20260504022329 18 181 3.2 6.4 0.00 0.00 0.00 60 1018.5
20260504022037 18 181 3.2 6.4 0.00 0.00 0.00 60 1017.3
20260504021825 18 181 4.8 6.4 0.00 0.00 0.00 60 1018.4
20260504021529 18 181 3.2 6.4 0.00 0.00 0.00 60 1017.2
20260504021322 18 181 4.8 6.4 0.00 0.00 0.00 59 1018.5
20260504021020 18 181 3.2 6.4 0.00 0.00 0.00 59 1017.3
20260504020818 18 181 4.8 6.4 0.00 0.00 0.00 59 1018.5
20260504020514 18 181 3.2 6.4 0.00 0.00 0.00 59 1017.3
20260504020316 18 181 4.8 6.4 0.00 0.00 0.00 59 1018.4
20260504020104 18 181 4.8 6.4 0.00 0.00 0.00 59 1017.2
20260504015832 18 182 4.8 6.4 0.00 0.00 0.00 58 1018.4
20260504015556 18 181 3.2 6.4 0.00 0.00 0.00 58 1017.3
20260504015328 19 181 4.8 6.4 0.00 0.00 0.00 58 1018.5
20260504015051 18 181 4.8 6.4 0.00 0.00 0.00 57 1017.3
20260504014824 19 181 4.8 6.4 0.00 0.00 0.00 57 1018.4
20260504014545 19 181 3.2 4.8 0.00 0.00 0.00 56 1017.3
20260504014322 19 181 3.2 4.8 0.00 0.00 0.00 56 1018.4
20260504014037 19 181 3.2 6.4 0.00 0.00 0.00 56 1017.2
20260504013818 20 181 3.2 6.4 0.00 0.00 0.00 56 1018.3
20260504013534 19 181 3.2 6.4 0.00 0.00 0.00 55 1017.1
20260504013314 20 181 4.8 6.4 0.00 0.00 0.00 55 1018.1
20260504013036 20 181 3.2 6.4 0.00 0.00 0.00 54 1016.9
20260504012831 20 181 4.8 6.4 0.00 0.00 0.00 54 1018.0
20260504012508 20 181 3.2 6.4 0.00 0.00 0.00 54 1016.9
20260504012328 20 181 4.8 6.4 0.00 0.00 0.00 54 1018.1
20260504012105 20 181 3.2 6.4 0.00 0.00 0.00 54 1016.9
20260504011823 20 181 4.8 6.4 0.00 0.00 0.00 53 1018.0
20260504011554 20 181 3.2 6.4 0.00 0.00 0.00 53 1016.8
20260504011320 20 181 4.8 8.0 0.00 0.00 0.00 53 1018.0
20260504011047 20 181 4.8 8.0 0.00 0.00 0.00 53 1016.8
20260504010817 21 164 4.8 8.0 0.00 0.00 0.00 53 1017.9
20260504010540 20 170 4.8 9.7 0.00 0.00 0.00 52 1016.6
20260504010332 21 156 6.4 9.7 0.00 0.00 0.00 52 1017.8
20260504010032 21 152 6.4 9.7 0.00 0.00 0.00 52 1016.7
20260504005828 21 173 6.4 8.0 0.00 0.00 0.00 52 1017.9
20260504005528 21 173 3.2 6.4 0.00 0.00 0.00 52 1016.8
20260504005325 21 174 4.8 6.4 0.00 0.00 0.00 51 1018.0
20260504005022 21 168 3.2 8.0 0.00 0.00 0.00 51 1016.8
20260504004821 21 168 4.8 8.0 0.00 0.00 0.00 51 1018.0
20260504004515 21 168 6.4 8.0 0.00 0.00 0.00 50 1016.8
20260504004315 22 164 4.8 8.0 0.00 0.00 0.00 50 1018.0
20260504004058 21 164 0.0 0.0 0.00 0.00 0.00 50 1016.8
20260504003827 22 164 0.0 0.0 0.00 0.00 0.00 49 1018.0
20260504003531 22 186 0.0 0.0 0.00 0.00 0.00 49 1017.0
20260504003324 22 173 0.0 0.0 0.00 0.00 0.00 49 1018.1
20260504003038 22 193 0.0 0.0 0.00 0.00 0.00 48 1017.0
20260504002821 22 174 0.0 0.0 0.00 0.00 0.00 48 1018.2
20260504002522 22 156 0.0 0.0 0.00 0.00 0.00 48 1016.9
20260504002339 22 180 0.0 0.0 0.00 0.00 0.00 49 1018.1
20260504002101 22 166 0.0 0.0 0.00 0.00 0.00 48 1017.0
20260504001830 22 210 0.0 0.0 0.00 0.00 0.00 48 1018.1
20260504001552 22 176 0.0 0.0 0.00 0.00 0.00 48 1016.9
20260504001327 22 164 0.0 0.0 0.00 0.00 0.00 48 1018.0
20260504001047 22 164 0.0 0.0 0.00 0.00 0.00 46 1016.9
20260504000824 23 172 0.0 0.0 0.00 0.00 0.00 46 1018.2
20260504000540 22 204 0.0 0.0 0.00 0.00 0.00 45 1017.1
20260504000320 23 194 0.0 0.0 0.00 0.00 0.00 44 1018.2
20260504000038 22 189 0.0 0.0 0.00 0.00 0.00 45 1017.2
20260503235816 23 172 0.0 0.0 0.00 0.00 0.00 45 1018.2
20260503235518 22 187 0.0 0.0 0.00 0.00 0.00 44 1017.2
20260503235351 23 171 0.0 0.0 0.00 0.00 0.00 44 1018.3
20260503235050 22 183 0.0 0.0 0.00 0.00 0.00 44 1017.3
20260503234847 23 192 0.0 0.0 0.00 0.00 0.00 44 1018.4
20260503234527 23 179 0.0 0.0 0.00 0.00 0.00 43 1017.3
20260503234323 23 195 0.0 0.0 0.00 0.00 0.00 43 1018.5
20260503234004 23 212 0.0 0.0 0.00 0.00 0.00 43 1017.4
20260503233819 23 187 0.0 0.0 0.00 0.00 0.00 43 1018.6
20260503233558 23 186 0.0 0.0 0.00 0.00 0.00 42 1017.4
20260503233315 23 169 0.0 0.0 0.00 0.00 0.00 42 1018.6
20260503233052 23 162 0.0 0.0 0.00 0.00 0.00 41 1017.5
20260503232832 23 182 0.0 0.0 0.00 0.00 0.00 41 1018.6
20260503232549 23 166 0.0 0.0 0.00 0.00 0.00 40 1017.4
20260503232330 23 154 0.0 0.0 0.00 0.00 0.00 40 1018.6
20260503232038 23 179 0.0 0.0 0.00 0.00 0.00 39 1017.4
20260503231824 23 190 0.0 0.0 0.00 0.00 0.00 38 1018.7
20260503231530 23 177 0.0 0.0 0.00 0.00 0.00 38 1017.5
20260503231322 23 181 0.0 0.0 0.00 0.00 0.00 38 1018.6
20260503231026 23 172 0.0 0.0 0.00 0.00 0.00 38 1017.6
20260503230817 23 201 0.0 0.0 0.00 0.00 0.00 38 1018.7
20260503230518 23 154 0.0 0.0 0.00 0.00 0.00 37 1017.5
20260503230333 24 149 0.0 0.0 0.00 0.00 0.00 37 1018.7
20260503230106 23 166 0.0 0.0 0.00 0.00 0.00 37 1017.5
20260503225825 24 181 0.0 0.0 0.00 0.00 0.00 36 1018.7
20260503225555 24 198 0.0 0.0 0.00 0.00 0.00 36 1017.5
20260503225323 24 174 0.0 0.0 0.00 0.00 0.00 38 1018.7
20260503225046 24 204 0.0 0.0 0.00 0.00 0.00 37 1017.4
20260503224840 24 158 0.0 0.0 0.00 0.00 0.00 38 1018.6
20260503224525 24 170 0.0 0.0 0.00 0.00 0.00 37 1017.4
20260503224314 24 129 0.0 0.0 0.00 0.00 0.00 37 1018.6
20260503224058 24 168 0.0 0.0 0.00 0.00 0.00 37 1017.6
20260503223831 24 183 0.0 0.0 0.00 0.00 0.00 36 1018.7
20260503223552 24 143 0.0 0.0 0.00 0.00 0.00 36 1017.6
20260503223325 24 151 0.0 0.0 0.00 0.00 0.00 36 1018.7
20260503223020 24 154 0.0 0.0 0.00 0.00 0.00 36 1017.6
20260503222820 24 187 0.0 0.0 0.00 0.00 0.00 36 1018.8
20260503222514 24 169 0.0 0.0 0.00 0.00 0.00 37 1017.7
20260503222316 24 160 0.0 0.0 0.00 0.00 0.00 36 1019.0
20260503222057 24 168 0.0 0.0 0.00 0.00 0.00 36 1017.8
20260503221831 24 166 0.0 0.0 0.00 0.00 0.00 36 1019.0
20260503221554 24 158 0.0 0.0 0.00 0.00 0.00 38 1017.8
20260503221327 24 181 0.0 0.0 0.00 0.00 0.00 37 1018.9
20260503221046 24 197 0.0 0.0 0.00 0.00 0.00 36 1017.7
20260503220842 24 188 0.0 0.0 0.00 0.00 0.00 37 1019.0
20260503220514 24 203 0.0 0.0 0.00 0.00 0.00 37 1018.0
20260503220316 24 170 0.0 0.0 0.00 0.00 0.00 38 1019.1
20260503220100 24 160 0.0 0.0 0.00 0.00 0.00 36 1018.0
20260503215828 24 162 0.0 0.0 0.00 0.00 0.00 37 1019.1
20260503215549 24 190 0.0 0.0 0.00 0.00 0.00 38 1018.0
20260503215324 24 213 0.0 0.0 0.00 0.00 0.00 36 1019.2
20260503215044 24 228 0.0 0.0 0.00 0.00 0.00 37 1018.1
20260503214819 24 195 0.0 16.1 0.00 0.00 0.00 37 1019.2
20260503214538 24 182 0.0 20.9 0.00 0.00 0.00 37 1018.2
20260503214315 24 195 0.0 20.9 0.00 0.00 0.00 37 1019.3
20260503214032 24 166 8.0 29.0 0.00 0.00 0.00 39 1018.2
20260503213832 24 206 16.1 29.0 0.00 0.00 0.00 37 1019.4
20260503213516 24 166 20.9 29.0 0.00 0.00 0.00 37 1018.5
20260503213328 24 171 22.5 29.0 0.00 0.00 0.00 38 1019.5
20260503213011 23 138 14.5 25.7 0.00 0.00 0.00 38 1018.5
20260503212824 24 154 19.3 25.7 0.00 0.00 0.00 36 1019.6
20260503212502 24 164 12.9 19.3 0.00 0.00 0.00 37 1018.7
20260503212319 24 202 12.9 19.3 0.00 0.00 0.00 38 1019.9
20260503212056 24 170 9.7 24.1 0.00 0.00 0.00 36 1018.8
20260503211815 24 187 11.3 24.1 0.00 0.00 0.00 38 1020.1
20260503211548 23 179 12.9 27.4 0.00 0.00 0.00 37 1019.0
20260503211332 24 151 17.7 27.4 0.00 0.00 0.00 36 1020.1
20260503211039 24 156 9.7 27.4 0.00 0.00 0.00 37 1019.0
20260503210848 24 156 17.7 27.4 0.00 0.00 0.00 36 1020.2
20260503210505 24 201 19.3 32.2 0.00 0.00 0.00 38 1019.1
20260503210323 24 164 16.1 32.2 0.00 0.00 0.00 37 1020.2
20260503205838 24 145 16.1 25.7 0.00 0.00 0.00 38 1020.4
20260503205534 24 162 12.9 27.4 0.00 0.00 0.00 38 1019.3
20260503205333 24 129 12.9 29.0 0.00 0.00 0.00 37 1020.3
20260503205018 23 168 17.7 27.4 0.00 0.00 0.00 37 1019.3
20260503204830 24 145 20.9 27.4 0.00 0.00 0.00 38 1020.4
20260503204512 23 138 16.1 27.4 0.00 0.00 0.00 37 1019.5
20260503204325 24 193 17.7 25.7 0.00 0.00 0.00 37 1020.4
20260503204005 24 198 9.7 30.6 0.00 0.00 0.00 36 1019.6
20260503203842 24 180 14.5 30.6 0.00 0.00 0.00 36 1020.7
20260503203538 24 162 17.7 32.2 0.00 0.00 0.00 36 1019.7
20260503203315 24 151 22.5 32.2 0.00 0.00 0.00 37 1020.8
20260503203035 24 156 17.7 32.2 0.00 0.00 0.00 37 1019.6
20260503202830 24 191 17.7 33.8 0.00 0.00 0.00 36 1020.7
20260503202516 24 184 14.5 22.5 0.00 0.00 0.00 38 1019.6
20260503202326 24 206 16.1 20.9 0.00 0.00 0.00 38 1020.7
20260503202051 23 193 12.9 30.6 0.00 0.00 0.00 38 1019.6
20260503201823 24 191 12.9 30.6 0.00 0.00 0.00 37 1020.6
20260503201542 23 152 20.9 30.6 0.00 0.00 0.00 36 1019.7
20260503201318 24 143 19.3 30.6 0.00 0.00 0.00 36 1020.8
20260503201036 24 173 14.5 24.1 0.00 0.00 0.00 38 1019.8
20260503200815 24 154 16.1 24.1 0.00 0.00 0.00 37 1020.9
20260503200519 24 175 17.7 27.4 0.00 0.00 0.00 38 1020.0
20260503200333 24 123 20.9 27.4 0.00 0.00 0.00 37 1021.0
20260503200012 23 152 4.8 20.9 0.00 0.00 0.00 38 1020.0
20260503195847 24 131 4.8 20.9 0.00 0.00 0.00 39 1021.1
20260503195541 23 162 6.4 20.9 0.00 0.00 0.00 37 1020.3
20260503195320 24 172 12.9 20.9 0.00 0.00 0.00 37 1021.4
20260503195001 24 198 14.5 19.3 0.00 0.00 0.00 37 1020.5
20260503194817 24 172 12.9 17.7 0.00 0.00 0.00 39 1021.5
20260503194601 24 179 8.0 19.3 0.00 0.00 0.00 40 1020.6
20260503194314 24 214 14.5 19.3 0.00 0.00 0.00 38 1021.6
20260503194049 23 237 11.3 19.3 0.00 0.00 0.00 39 1020.6
20260503193829 24 217 14.5 19.3 0.00 0.00 0.00 39 1021.6
20260503193540 23 138 6.4 20.9 0.00 0.00 0.00 39 1020.5
20260503193326 24 192 12.9 24.1 0.00 0.00 0.00 38 1021.6
20260503193037 23 206 11.3 24.1 0.00 0.00 0.00 40 1020.7
20260503192822 24 194 12.9 24.1 0.00 0.00 0.00 39 1021.8
20260503192517 23 202 17.7 24.1 0.00 0.00 0.00 40 1020.9
20260503192333 23 149 14.5 24.1 0.00 0.00 0.00 40 1021.8
20260503192049 23 171 16.1 24.1 0.00 0.00 0.00 38 1020.8
20260503191849 24 143 16.1 24.1 0.00 0.00 0.00 39 1021.8
20260503191512 23 184 8.0 24.1 0.00 0.00 0.00 39 1020.8
20260503191323 23 157 8.0 24.1 0.00 0.00 0.00 39 1021.7
20260503191008 23 185 11.3 24.1 0.00 0.00 0.00 40 1020.8
20260503190820 23 219 11.3 22.5 0.00 0.00 0.00 43 1021.9
20260503190559 23 149 14.5 25.7 0.00 0.00 0.00 41 1021.0
20260503190316 23 187 17.7 27.4 0.00 0.00 0.00 41 1022.0
20260503190052 23 131 14.5 27.4 0.00 0.00 0.00 40 1021.0
20260503185831 23 123 6.4 27.4 0.00 0.00 0.00 39 1022.1
20260503185543 23 149 19.3 27.4 0.00 0.00 0.00 38 1021.2
20260503185328 23 122 14.5 25.7 0.00 0.00 0.00 39 1022.1
20260503185033 23 182 12.9 19.3 0.00 0.00 0.00 42 1021.1
20260503184824 23 85 9.7 19.3 0.00 0.00 0.00 41 1022.1
20260503184524 23 145 8.0 24.1 0.00 0.00 0.00 40 1021.2
20260503184319 23 197 12.9 24.1 0.00 0.00 0.00 39 1022.3
20260503184007 23 199 14.5 24.1 0.00 0.00 0.00 40 1021.5
20260503183835 23 188 17.7 24.1 0.00 0.00 0.00 38 1022.5
20260503183537 23 216 6.4 19.3 0.00 0.00 0.00 40 1021.5
20260503183331 23 172 6.4 19.3 0.00 0.00 0.00 38 1022.5
20260503183031 23 179 11.3 19.3 0.00 0.00 0.00 39 1021.6
20260503182826 23 162 11.3 19.3 0.00 0.00 0.00 41 1022.7
20260503182523 23 214 12.9 22.5 0.00 0.00 0.00 42 1021.8
20260503182321 23 177 9.7 27.4 0.00 0.00 0.00 40 1022.7
20260503182018 22 154 14.5 27.4 0.00 0.00 0.00 39 1021.8
20260503181816 23 187 14.5 27.4 0.00 0.00 0.00 40 1022.9
20260503181600 22 221 16.1 27.4 0.00 0.00 0.00 41 1021.9
20260503181315 23 245 11.3 24.1 0.00 0.00 0.00 42 1023.0
20260503181052 23 204 12.9 25.7 0.00 0.00 0.00 43 1022.1
20260503180830 23 224 9.7 25.7 0.00 0.00 0.00 44 1023.2
20260503180544 23 235 12.9 25.7 0.00 0.00 0.00 44 1022.2
20260503180347 23 206 16.1 25.7 0.00 0.00 0.00 43 1023.2
20260503180007 23 207 9.7 24.1 0.00 0.00 0.00 45 1022.4
20260503175821 23 137 8.0 24.1 0.00 0.00 0.00 44 1023.3
20260503175503 22 153 12.9 24.1 0.00 0.00 0.00 43 1022.5
20260503175317 22 137 11.3 19.3 0.00 0.00 0.00 42 1023.4
20260503175056 22 165 12.9 19.3 0.00 0.00 0.00 40 1022.7
20260503174833 23 195 16.1 19.3 0.00 0.00 0.00 41 1023.6
20260503174547 22 193 9.7 22.5 0.00 0.00 0.00 42 1022.8
20260503174347 22 207 6.4 22.5 0.00 0.00 0.00 41 1023.7
20260503174023 22 185 11.3 22.5 0.00 0.00 0.00 39 1022.7
20260503173843 22 219 17.7 22.5 0.00 0.00 0.00 39 1023.8
20260503173550 22 195 6.4 24.1 0.00 0.00 0.00 38 1022.8
20260503173318 22 214 11.3 24.1 0.00 0.00 0.00 41 1023.8
20260503173040 22 216 11.3 24.1 0.00 0.00 0.00 40 1022.9
20260503172833 22 240 14.5 24.1 0.00 0.00 0.00 39 1023.8
20260503172532 22 206 11.3 17.7 0.00 0.00 0.00 39 1022.8
20260503172330 22 222 11.3 20.9 0.00 0.00 0.00 42 1023.7
20260503172055 22 206 9.7 20.9 0.00 0.00 0.00 41 1022.9
20260503171827 22 241 8.0 20.9 0.00 0.00 0.00 41 1023.8
20260503171608 22 233 14.5 20.9 0.00 0.00 0.00 39 1023.0
20260503171340 22 152 11.3 20.9 0.00 0.00 0.00 39 1023.9
20260503171019 22 197 11.3 20.9 0.00 0.00 0.00 43 1023.0
20260503170816 22 225 11.3 25.7 0.00 0.00 0.00 42 1023.9
20260503170501 22 236 11.3 25.7 0.00 0.00 0.00 42 1023.0
20260503170331 22 209 14.5 25.7 0.00 0.00 0.00 42 1024.1
20260503170105 22 206 9.7 24.1 0.00 0.00 0.00 42 1023.1
20260503150831 20 212 12.9 22.5 0.00 0.00 0.00 60 1024.6
20260503150535 19 235 12.9 22.5 0.00 0.00 0.00 60 1023.6
20260503150322 19 237 9.7 22.5 0.00 0.00 0.00 62 1024.5
20260503131323 14 227 4.8 9.7 0.00 0.00 0.00 78 1023.9
20260503131040 13 256 4.8 11.3 0.00 0.00 0.00 78 1023.1
20260503130820 14 231 3.2 4.8 0.00 0.00 0.00 79 1023.8
20260503130534 13 231 1.6 8.0 0.00 0.00 0.00 79 1023.1
20260503130315 13 231 1.6 8.0 0.00 0.00 0.00 79 1023.9